Location: Taupo
(38.6830°S, 176.0830°E)
Time: 12:23:49
(UTC+13:00)

ISS - Pass Details

Date: 29 January 2019
Orbit: 403 x 411 km, 51.6° (Epoch: 20 February)

Event Time Altitude Azimuth Distance (km) Brightness Sun altitude
Exits shadow 04:42:01 19° 23° (NNE) 1,069 -1.9 -17.3°
Maximum altitude 04:43:01 21° 49° (NE) 982 -1.8 -17.2°
Drops below altitude 10° 04:45:38 10° 100° (E) 1,490 -0.1 -16.8°
Sets 04:48:03 0° 116° (ESE) 2,358 1.6 -16.5°
